Location: Peebles
(55.6412°N, 3.1714°W)
Time: 16:05:04
(UTC+01:00)

Cosmos 1758 - Pass Details

Date: 26 September 2021
Orbit: 538 x 562 km, 82.5° (Epoch: 18 October)

Event Time Altitude Azimuth Distance (km) Brightness Sun altitude
Exits shadow 22:12:11 40° 6° (N) 828 4.4 -25.9°
Drops below altitude 10° 22:14:52 10° 11° (N) 1,844 6.3 -26.1°
Sets 22:17:02 0° 12° (NNE) 2,739 7.3 -26.4°
